THOR AGENA D R/B, 2255

Orbit data source: Space-Track

THOR AGENA D R/B, 2255 is space debris in LEO originally from a launch on Fri, 24 Jun 1966 UTC launched from the Air Force Western Test Range (AFWTR). Debris objects in space refer to the collection of defunct objects orbiting the Earth. Examples of debris include non-operational satellites, rocket bodies, and fragments generated from explosions, collisions, or faulty payload assembly.

Loading next visibility...
Identifier
2255, 1966-056B
Orbit
LEO
Country
Flag of USUS
Related business
Manufacturer
LMSC
Mission
Spacecraft
Bus & Motor
AGENA D, Unknown motor
Mass
600 kg wet, 600 kg dry
Launch date (UTC)
1966-06-24 (59 years ago)
Launch vehicle
Unknown
Launch site
Air Force Western Test Range (AFWTR)
Object type
Payload
Rocket body
Debris
Shape & HBR
Unknown
Radar Cross Section
Large (>1 m²)

Expand to show TLE details & history
Last TLE update: 1 day ago

TLE from 1 day ago
0 THOR AGENA D R/B
1 02255U 66056B   25308.67778658  .00000004  00000-0  22682-2 0  9995
2 02255  86.9749 198.8757 0047122 284.6761  74.8826  7.94756818722487
Epoch: 2025-11-04T16:16Z
TLE epoch observation values (Epoch: 2025-11-04T16:16:00.760Z)
Latitude
0.00002°
Longitude
-89.28884°
Altitude
4,217.779 km
Speed
6.138 km/s
True Right ascension
13h 15m 30s
True Declination
0° 00' 00"
Sunlit
Object was in daylight at epoch
Visualization orbit readout
Latitude
Unknown
Longitude
Unknown
Altitude
Unknown
Speed
Unknown
Apparent Right ascension
Unknown
Apparent Declination
Unknown
Sunlit
N/A
Visualization observer readout
Local Sidereal Time
12:46:03
Azimuth
Unknown
Elevation
Unknown
Doppler factor
Unknown
Orbital elements
Apogee altitude
4,276.451 km
Perigee altitude
4,176.508 km
Semi-major axis
10,604.617 km
Eccentricity
0.00471
Inclination
86.9749°
RAAN
198.8757°
Arg. of periapsis
284.6761°
True anomaly
75.40469°
Mean anomaly
74.8826°
Eccentric anomaly
75.14356°
Mean motion
1.98747 °/min
Orbital period
181.13 mins
BSTAR
0.0022682
Loading maneuver chart data...
Computing Atmospheric mass density...

Documentation

Showing up to 5 results
|